Location: ???????????
(54.5822°N, 39.1075°E)
Time: 02:03:45
(UTC+00:00)

SL-16 R/B - Pass Details

Date: 19 May 2025
Orbit: 985 x 1006 km, 99.7° (Epoch: 14 June)

Event Time Altitude Azimuth Distance (km) Brightness Sun altitude
Rises 23:00:36 0° 127° (SE) 3,689 5.4 -12.4°
Reaches altitude 10° 23:03:15 10° 119° (ESE) 2,744 4.8 -12.2°
Maximum altitude 23:08:44 36° 55° (NE) 1,534 4.2 -11.9°
Drops below altitude 10° 23:14:16 10° 352° (N) 2,765 5.8 -11.5°
Sets 23:16:56 0° 345° (NNW) 3,721 6.3 -11.4°
